THORAD DELTA 1 DEB, 8784

Orbit data source: Space-Track

THORAD DELTA 1 DEB, 8784 is space debris in SSO originally from a launch on Fri, 15 Nov 1974 UTC launched from the Air Force Western Test Range (AFWTR). Debris objects in space refer to the collection of defunct objects orbiting the Earth. Examples of debris include non-operational satellites, rocket bodies, and fragments generated from explosions, collisions, or faulty payload assembly.

Loading next visibility...
Identifier
8784, 1974-089DL
Orbit
SSO
Country
Flag of USUS
Related business
Manufacturer
Unknown
Mission
Spacecraft
Bus & Motor
Unknown
Mass
Unknown
Launch date (UTC)
1974-11-15 (51 years ago)
Launch vehicle
Unknown
Launch site
Air Force Western Test Range (AFWTR)
Object type
Payload
Rocket body
Debris
Shape & HBR
Unknown shape, 0.1 m
Radar Cross Section
Small (<0.1 m²)

Expand to show TLE details & history
Last TLE update: 9 hours ago

TLE from 9 hours ago
0 THORAD DELTA 1 DEB
1 08784U 74089DL  26072.89185499  .00012482  00000-0  18323-1 0  9990
2 08784 100.8754 111.4460 0198173  75.5791 102.0184 13.46908943519530
Epoch: 2026-03-13T21:24Z
TLE epoch observation values (Epoch: 2026-03-13T21:24:16.271Z)
Latitude
0.07978°
Longitude
158.87258°
Altitude
1,119.966 km
Speed
7.276 km/s
True Right ascension
19h 25m 50s
True Declination
0° 04' 46"
Sunlit
Object was in daylight at epoch
Visualization orbit readout
Latitude
Unknown
Longitude
Unknown
Altitude
Unknown
Speed
Unknown
Apparent Right ascension
Unknown
Apparent Declination
Unknown
Sunlit
N/A
Visualization observer readout
Local Sidereal Time
10:42:27
Azimuth
Unknown
Elevation
Unknown
Doppler factor
Unknown
Orbital elements
Apogee altitude
1,228.841 km
Perigee altitude
933.2 km
Semi-major axis
7,459.158 km
Eccentricity
0.01982
Inclination
100.8754°
RAAN
111.446°
Arg. of periapsis
75.5791°
True anomaly
104.22757°
Mean anomaly
102.0184°
Eccentric anomaly
103.12419°
Mean motion
3.36906 °/min
Orbital period
106.85 mins
BSTAR
0.018323
Loading maneuver chart data...
Computing Atmospheric mass density...

Documentation

Showing up to 5 results
|